Regional Weather Roundup
Issued by NWS Albany, NY

Home | Current Version | Previous Version | Text Only | Print | Product List | Glossary On
Versions: 1 2 3 4 5 6 7 8 9 10 11 12 13 14 15 16 17 18 19 20 21 22 23 24 25 26 27 28
000
ASUS41 KALY 211110
RWRALY

NEW YORK STATE HOURLY WEATHER ROUNDUP
NATIONAL WEATHER SERVICE ALBANY NY
600 AM EST SAT JAN 21 2017

NOTE: "FAIR" INDICATES FEW OR NO CLOUDS BELOW 12,000 FEET WITH NO
SIGNIFICANT WEATHER AND/OR NO OBSTRUCTIONS TO VISIBILITY.

NYZ032-033-038>043-046>054-057>066-NYZ062>081-082-084-211200-
EAST


CITY           SKY/WX    TMP DP  RH WIND       PRES   REMARKS
ALBANY         DRIZZLE   38  35  89 S7        29.85R FOG     WCI  33
GLENS FALLS    FOG       35  32  88 CALM      29.83F VSB 1/2
POUGHKEEPSIE   CLOUDY    39  38  96 CALM      29.85F
NEWBURGH       CLOUDY    39  39 100 W12       29.87S FOG     WCI  32
MONTGOMERY     CLOUDY    39  38  96 SW7       29.85R FOG     WCI  34
WHITE PLAINS     N/A     41  39  93 W6        29.85F FOG
ISLIP          CLOUDY    43  42  97 W6        29.88S FOG
NEW YORK CITY  CLOUDY    45  41  86 SW6       29.88F
CENTRAL PARK   CLOUDY    42  41  96 VRB3      29.90F FOG
$$

NYZ005>009-017-018-044>046-055-056-211200-
CENTRAL


CITY           SKY/WX    TMP DP  RH WIND       PRES   REMARKS
FULTON         CLOUDY    38  37  97 SE3       29.81S FOG
SYRACUSE       CLOUDY    37  37 100 CALM      29.81S
ROME           CLOUDY    37  37 100 SE3       29.83S
ELMIRA         FOG       36  34  92 SW5       29.83R VSB 1/4 WCI  32
BINGHAMTON     FOG       37  37 100 SW5       29.81F VSB 1   WCI  33
MONTICELLO     CLOUDY    34  34 100 CALM      29.86R VSB 1
$$

NYZ026>034-041>043-087-211200-
NORTH


CITY           SKY/WX    TMP DP  RH WIND       PRES   REMARKS
WATERTOWN      CLOUDY    44  43  96 SW14      29.78R
FORT DRUM      NOT AVBL
OGDENSBURG     DRIZZLE   35  35  96 CALM      29.76S
MASSENA        CLOUDY    33  33 100 NE5       29.79F FOG     WCI  29
SARANAC LAKE   FOG       33  32  96 CALM      29.74F VSB 1
PLATTSBURGH    CLOUDY    33  32  96 CALM      29.81S
$$

NYZ001>004-010>016-019>021-085-211200-
WEST


CITY           SKY/WX    TMP DP  RH WIND       PRES   REMARKS
NIAGARA FALLS  CLOUDY    42  38  85 S7        29.80R FOG
BUFFALO        FOG       42  41  96 SW5       29.80R VSB 1/4
DUNKIRK        FOG       43  43 100 CALM      29.80S VSB 1/2
JAMESTOWN      CLOUDY    46  45  93 SW7       29.80R
WELLSVILLE     FOG       47  44  90 SW8       29.81S VSB 3/4
ROCHESTER      DRIZZLE   45  43  93 SW5       29.79F
PENN YAN       PTCLDY    43  38  82 SW10      29.81S
$$

             KEY
       WCI = WIND CHILL INDEX
       VSB = VISIBILITY
       HX  = HEAT INDEX
$$




USA.gov is the U.S. government's official web portal to all federal, state and local government web resources and services.